Location: Poughquag
(41.6090°N, 73.6820°W)
Time: 07:32:24
(UTC-04:00)

Transit 4A - All Passes

Search period start: 29 May 2020 00:00
Search period end: 08 June 2020 00:00
Orbit: 869 x 976 km, 66.8° (Epoch: 28 May)

Date Brightness Start Highest point End Pass type
(mag) Time Alt. Az. Time Alt. Az. Time Alt. Az.
29 May - 01:16:29 10° SE 01:19:52 16° ESE 01:23:14 10° ENE visible
29 May - 02:59:38 10° SW 03:05:26 76° WNW 03:11:22 10° NNE visible
29 May - 04:49:16 10° WNW 04:52:50 16° NW 04:56:27 10° N visible
29 May - 10:16:16 10° N 10:21:11 24° NE 10:26:10 10° E daylight
29 May - 12:01:57 10° NW 12:08:05 70° WSW 12:14:20 10° SSE daylight
30 May - 01:24:18 10° SSE 01:28:53 25° ESE 01:33:32 10° NE visible
30 May - 03:09:11 10° SW 03:14:50 52° NW 03:20:36 10° NNE visible
30 May - 05:00:21 10° NW 05:02:39 12° NNW 05:04:58 10° N daylight
30 May - 10:25:18 10° NNW 10:30:48 33° NE 10:36:22 10° ESE daylight
30 May - 12:11:26 10° NW 12:17:19 48° WSW 12:23:19 10° S daylight
31 May - 01:32:43 10° S 01:38:00 37° ESE 01:43:21 10° NE visible
31 May - 03:18:58 10° WSW 03:24:19 37° NW 03:29:46 10° NNE visible
31 May - 08:50:22 10° NNE 08:52:20 11° NNE 08:54:18 10° NE daylight
31 May - 10:34:25 10° NNW 10:40:18 46° NE 10:46:19 10° SE daylight
31 May - 12:21:06 10° NW 12:26:29 32° WSW 12:31:58 10° S daylight
01 Jun - 01:41:31 10° SSW 01:47:10 57° ESE 01:52:56 10° NE visible
01 Jun - 03:29:02 10° WSW 03:33:53 26° NW 03:38:49 10° N visible
01 Jun - 08:58:44 10° N 09:02:11 15° NE 09:05:41 10° ENE daylight
01 Jun - 10:43:37 10° NNW 10:49:45 65° ENE 10:56:00 10° SE daylight
01 Jun - 12:31:03 10° WNW 12:35:35 22° WSW 12:40:10 10° SSW daylight
02 Jun - 00:09:13 10° ESE 00:11:04 12° E 00:12:56 10° E visible
02 Jun - 01:50:37 10° SSW 01:56:25 85° ESE 02:02:22 10° NNE visible
02 Jun - 03:39:23 10° W 03:43:33 20° NW 03:47:47 10° N visible
02 Jun - 09:07:30 10° N 09:11:57 20° NE 09:16:27 10° E daylight
02 Jun - 10:52:54 10° NNW 10:59:06 88° WSW 11:05:25 10° SSE daylight
02 Jun - 12:41:37 10° WNW 12:44:37 14° WSW 12:47:37 10° SW daylight
03 Jun - 00:16:09 10° SSE 00:20:04 19° ESE 00:24:00 10° ENE visible
03 Jun - 02:00:00 10° SW 02:05:46 67° WNW 02:11:40 10° NNE visible
03 Jun - 03:50:07 10° WNW 03:53:19 15° NW 03:56:33 10° N visible
03 Jun - 09:16:27 10° N 09:21:37 27° NE 09:26:51 10° ESE daylight
03 Jun - 11:02:19 10° NW 11:08:23 61° WSW 11:14:35 10° SSE daylight
04 Jun - 00:24:14 10° SSE 00:29:07 29° ESE 00:34:04 10° NE visible
04 Jun - 02:09:37 10° SW 02:15:11 46° NW 02:20:53 10° NNE visible
04 Jun - 04:01:34 10° NW 04:03:10 11° NNW 04:04:48 10° NNW visible
04 Jun - 09:25:31 10° NNW 09:31:12 37° NE 09:36:58 10° ESE daylight
04 Jun - 11:11:51 10° NW 11:17:36 41° WSW 11:23:27 10° S daylight
05 Jun - 00:32:48 10° S 00:38:15 43° ESE 00:43:47 10° NE visible
05 Jun - 02:19:30 10° WSW 02:24:42 33° NW 02:30:01 10° NNE visible
05 Jun - 07:50:14 10° N 07:52:51 13° NNE 07:55:31 10° ENE daylight
05 Jun - 09:34:40 10° NNW 09:40:41 52° NE 09:46:49 10° SE daylight
05 Jun - 11:21:36 10° NW 11:26:45 28° WSW 11:31:58 10° SSW daylight
06 Jun - 00:41:43 10° SSW 00:47:27 66° ESE 00:53:18 10° NE visible
06 Jun - 02:29:40 10° W 02:34:19 24° NW 02:39:02 10° N visible
06 Jun - 07:58:48 10° N 08:02:41 17° NE 08:06:36 10° ENE daylight
06 Jun - 09:43:54 10° NNW 09:50:06 74° ENE 09:56:24 10° SE daylight
06 Jun - 11:31:43 10° WNW 11:35:49 19° WSW 11:39:58 10° SW daylight
06 Jun - 23:08:24 10° SE 23:11:16 14° ESE 23:14:07 10° ENE visible
07 Jun - 00:50:55 10° SSW 00:56:44 85° WNW 01:02:41 10° NNE visible
07 Jun - 02:40:09 10° W 02:44:01 18° NW 02:47:57 10° N visible
07 Jun - 08:07:40 10° N 08:12:25 23° NE 08:17:13 10° E daylight
07 Jun - 09:53:14 10° NNW 09:59:26 78° WSW 10:05:44 10° SSE daylight
07 Jun - 11:42:49 10° W 11:44:49 12° W 11:46:50 10° WSW daylight
07 Jun - 23:15:57 10° SSE 23:20:16 22° ESE 23:24:39 10° ENE visible
